Location: Allonne
(49.4086°N, 2.1143°E)
Time: 10:41:57
(UTC+00:00)

Cosmos 1844 - Pass Details

Date: 03 February 2023
Orbit: 822 x 868 km, 70.9° (Epoch: 23 March)

Event Time Altitude Azimuth Distance (km) Brightness Sun altitude
Rises 17:55:00 0° 332° (NNW) 3,465 7.1 -10.8°
Reaches altitude 10° 17:57:31 10° 336° (NNW) 2,525 6.3 -11.2°
Maximum altitude 18:03:18 62° 57° (ENE) 970 3.8 -12.1°
Drops below altitude 10° 18:09:00 10° 138° (SE) 2,497 5.9 -13.0°
Sets 18:11:28 0° 142° (SE) 3,425 6.6 -13.4°
